SXS19 GVAC-LXGB

Flight info

Callsign SXS19
Flight time N/A
Altitude 32000
Route PINPO2A PINPO UW11 GUNET N857 LZR N871 KORAL UG5 SONSO UN871 OSDAM UM985 BARPA M985 XAVIR
Aircraft B38M/M-SDE1FGHILORVWXY/HB1

Departure

Time 2026-05-07 16:40
Airport Amílcar Cabral International Airport (GVAC)

Arrival

Time N/A
Airport Gibraltar Airport (LXGB)
Time Latitude Longitude Altitude Speed Heading
2026-05-07 16:34 16.73459 -22.94596 211 ft 0 kts 180°
2026-05-07 16:35 16.73455 -22.94596 211 ft 2 kts 180°
2026-05-07 16:35 16.73436 -22.94596 210 ft 4 kts 179°
2026-05-07 16:35 16.73393 -22.94595 201 ft 8 kts 179°
2026-05-07 16:35 16.73326 -22.94592 201 ft 11 kts 177°
2026-05-07 16:36 16.73237 -22.94592 201 ft 14 kts 181°
2026-05-07 16:36 16.73138 -22.94593 208 ft 14 kts 182°
2026-05-07 16:36 16.73068 -22.94637 201 ft 0 kts 231°
2026-05-07 16:37 16.73068 -22.94638 201 ft 0 kts 231°
2026-05-07 16:37 16.73057 -22.94654 210 ft 6 kts 237°
2026-05-07 16:38 16.73008 -22.94686 205 ft 10 kts 189°
2026-05-07 16:38 16.72912 -22.94690 198 ft 18 kts 179°
2026-05-07 16:38 16.72781 -22.94685 198 ft 19 kts 177°
2026-05-07 16:38 16.72642 -22.94687 187 ft 21 kts 181°
2026-05-07 16:39 16.72492 -22.94687 183 ft 21 kts 179°
2026-05-07 16:39 16.72407 -22.94757 185 ft 17 kts 265°
2026-05-07 16:39 16.72423 -22.94869 197 ft 15 kts 312°
2026-05-07 16:39 16.72484 -22.94887 194 ft 0 kts 357°
2026-05-07 16:40 16.72613 -22.94888 188 ft 54 kts
2026-05-07 16:40 16.73249 -22.94869 205 ft 125 kts 359°
2026-05-07 16:40 16.74265 -22.94855 517 ft 153 kts
2026-05-07 16:40 16.75354 -22.94903 1128 ft 149 kts 356°
2026-05-07 16:41 16.76282 -22.94947 2095 ft 127 kts 359°
2026-05-07 16:41 16.77183 -22.94970 2415 ft 132 kts 359°
2026-05-07 16:41 16.78121 -22.94990 2630 ft 142 kts
2026-05-07 16:41 16.79164 -22.95008 2796 ft 158 kts 359°
2026-05-07 16:42 16.80317 -22.95030 2954 ft 173 kts 359°
2026-05-07 16:42 16.81573 -22.95053 3086 ft 189 kts 358°
2026-05-07 16:42 16.82972 -22.95079 3375 ft 212 kts 357°
2026-05-07 16:42 16.84522 -22.94974 3755 ft 236 kts 17°
2026-05-07 16:43 16.85906 -22.93950 4160 ft 260 kts 53°
2026-05-07 16:43 16.86615 -22.92147 4641 ft 279 kts 75°
2026-05-07 16:43 16.86958 -22.90125 5272 ft 286 kts 81°
2026-05-07 16:43 16.87265 -22.88046 5929 ft 292 kts 79°
2026-05-07 16:44 16.87665 -22.85947 6605 ft 297 kts 77°
2026-05-07 16:44 16.88101 -22.83823 7275 ft 301 kts 78°
2026-05-07 16:44 16.88518 -22.81668 7958 ft 305 kts 79°
2026-05-07 16:44 16.88930 -22.79484 8646 ft 308 kts 77°
2026-05-07 16:45 16.89780 -22.77440 9313 ft 311 kts 52°
2026-05-07 16:45 16.91206 -22.75733 9986 ft 314 kts 46°
2026-05-07 16:45 16.92751 -22.74078 10500 ft 323 kts 45°
2026-05-07 16:45 16.94356 -22.72361 10840 ft 338 kts 46°
2026-05-07 16:46 16.95982 -22.70559 11162 ft 351 kts 46°
2026-05-07 16:46 16.97672 -22.68670 11634 ft 359 kts 46°
2026-05-07 16:46 16.99405 -22.66758 12171 ft 365 kts 46°
2026-05-07 16:46 17.01179 -22.64812 12738 ft 370 kts 46°
2026-05-07 16:47 17.02959 -22.62848 13309 ft 374 kts 46°
2026-05-07 16:47 17.04756 -22.60860 13872 ft 378 kts 46°
2026-05-07 16:47 17.06567 -22.58857 14405 ft 381 kts 46°
2026-05-07 16:47 17.08391 -22.56844 14962 ft 382 kts 46°
2026-05-07 16:48 17.10226 -22.54817 15546 ft 384 kts 46°
2026-05-07 16:48 17.12066 -22.52782 16131 ft 385 kts 46°
2026-05-07 16:48 17.13883 -22.50773 16686 ft 386 kts 45°
2026-05-07 16:48 17.15731 -22.48729 17240 ft 387 kts 46°
2026-05-07 16:49 17.17583 -22.46679 17798 ft 388 kts 45°
2026-05-07 16:49 17.19444 -22.44619 18328 ft 389 kts 45°
2026-05-07 16:49 17.21313 -22.42549 18786 ft 391 kts 44°
2026-05-07 16:49 17.23182 -22.40481 19216 ft 392 kts 45°
2026-05-07 16:50 17.25062 -22.38398 19657 ft 394 kts 45°
2026-05-07 16:50 17.26951 -22.36303 20080 ft 396 kts 45°
2026-05-07 16:50 17.28851 -22.34197 20513 ft 399 kts 45°
2026-05-07 16:50 17.30755 -22.32087 20933 ft 401 kts 45°
2026-05-07 16:51 17.32652 -22.29981 21357 ft 403 kts 45°
2026-05-07 16:51 17.34584 -22.27837 21777 ft 406 kts 45°
2026-05-07 16:51 17.36527 -22.25680 22202 ft 408 kts 45°
2026-05-07 16:51 17.38483 -22.23509 22620 ft 411 kts 45°
2026-05-07 16:52 17.40450 -22.21324 23028 ft 413 kts 45°
2026-05-07 16:52 17.42428 -22.19126 23442 ft 416 kts 45°
2026-05-07 16:52 17.44415 -22.16916 23789 ft 418 kts 45°
2026-05-07 16:52 17.46416 -22.14692 24121 ft 421 kts 45°
2026-05-07 16:53 17.48425 -22.12458 24445 ft 423 kts 45°
2026-05-07 16:53 17.50452 -22.10202 24784 ft 426 kts 45°
2026-05-07 16:53 17.52489 -22.07934 25115 ft 429 kts 45°
2026-05-07 16:53 17.54539 -22.05651 25451 ft 431 kts 45°
2026-05-07 16:54 17.56600 -22.03356 25788 ft 434 kts 45°
2026-05-07 16:54 17.58675 -22.01044 26125 ft 436 kts 45°
2026-05-07 16:54 17.60737 -21.98745 26456 ft 439 kts 45°
2026-05-07 16:54 17.62827 -21.96414 26785 ft 441 kts 45°
2026-05-07 16:55 17.64948 -21.94049 27117 ft 443 kts 45°
2026-05-07 16:55 17.67069 -21.91684 27443 ft 446 kts 45°
2026-05-07 16:55 17.69207 -21.89302 27767 ft 448 kts 45°
2026-05-07 16:55 17.71348 -21.86918 28086 ft 450 kts 45°
2026-05-07 16:56 17.73505 -21.84512 28414 ft 453 kts 45°
2026-05-07 16:56 17.75668 -21.82097 28729 ft 455 kts 45°
2026-05-07 16:56 17.80007 -21.77255 29354 ft 460 kts 45°
2026-05-07 16:57 17.82210 -21.74795 29655 ft 462 kts 45°
2026-05-07 16:57 17.84416 -21.72330 30040 ft 463 kts 45°
2026-05-07 16:57 17.86622 -21.69863 30426 ft 462 kts 45°
2026-05-07 16:57 17.88792 -21.67437 30774 ft 461 kts 45°
2026-05-07 16:58 17.90992 -21.64977 31119 ft 461 kts 45°
2026-05-07 16:58 17.93190 -21.62517 31462 ft 461 kts 45°
2026-05-07 16:58 17.95387 -21.60058 31814 ft 461 kts 45°
2026-05-07 16:58 17.97581 -21.57600 31964 ft 460 kts 45°
2026-05-07 16:59 18.01942 -21.52713 31955 ft 457 kts 45°
2026-05-07 16:59 18.06282 -21.47847 31962 ft 455 kts 45°
2026-05-07 17:00 18.10593 -21.43009 31963 ft 457 kts 45°
2026-05-07 17:00 18.14943 -21.38123 31962 ft 457 kts 45°
2026-05-07 17:01 18.19282 -21.33245 31962 ft 457 kts 45°
2026-05-07 17:01 18.23621 -21.28365 31973 ft 455 kts 45°
2026-05-07 17:02 18.27937 -21.23506 31973 ft 453 kts 45°
2026-05-07 17:02 18.32211 -21.18691 31971 ft 453 kts 45°
2026-05-07 17:03 18.36507 -21.13846 31973 ft 452 kts 45°
2026-05-07 17:03 18.40809 -21.08992 31973 ft 454 kts 45°
2026-05-07 17:04 18.45115 -21.04129 31971 ft 454 kts 45°
2026-05-07 17:04 18.49419 -20.99265 31972 ft 454 kts 45°
2026-05-07 17:05 18.53729 -20.94390 31976 ft 454 kts 45°
2026-05-07 17:05 18.58032 -20.89519 31974 ft 454 kts 45°
2026-05-07 17:06 18.62323 -20.84657 31973 ft 451 kts 45°
2026-05-07 17:06 18.66557 -20.79858 31976 ft 450 kts 45°
2026-05-07 17:07 18.70814 -20.75026 31974 ft 452 kts 45°
2026-05-07 17:07 18.75180 -20.70072 31983 ft 470 kts 45°
2026-05-07 17:08 18.79707 -20.64924 31974 ft 484 kts 45°
2026-05-07 17:08 18.84299 -20.59700 31977 ft 486 kts 45°
2026-05-07 17:09 18.88901 -20.54461 31974 ft 487 kts 45°
2026-05-07 17:09 18.93482 -20.49241 31976 ft 487 kts 45°
2026-05-07 17:10 18.98088 -20.43988 31973 ft 486 kts 45°
2026-05-07 17:10 19.02671 -20.38756 31975 ft 485 kts 45°
2026-05-07 17:11 19.07260 -20.33514 31975 ft 485 kts 45°
2026-05-07 17:11 19.11837 -20.28280 31974 ft 485 kts 45°
2026-05-07 17:12 19.16416 -20.23039 31975 ft 485 kts 45°
2026-05-07 17:12 19.20223 -20.18679 31975 ft 485 kts 45°
2026-05-07 17:13 19.25551 -20.12571 31978 ft 485 kts 45°
2026-05-07 17:13 19.29371 -20.08187 31975 ft 486 kts 45°
2026-05-07 17:14 19.33954 -20.02925 31972 ft 486 kts 45°
2026-05-07 17:14 19.38539 -19.97655 31975 ft 486 kts 45°
2026-05-07 17:15 19.43119 -19.92386 31974 ft 486 kts 45°
2026-05-07 17:15 19.47698 -19.87114 31974 ft 486 kts 45°
2026-05-07 17:16 19.52281 -19.81831 31976 ft 486 kts 45°
2026-05-07 17:16 19.56862 -19.76548 31973 ft 487 kts 45°
2026-05-07 17:17 19.62012 -19.71992 31980 ft 481 kts 27°
2026-05-07 17:17 19.67807 -19.68532 31977 ft 481 kts 26°
2026-05-07 17:18 19.73645 -19.65037 31977 ft 482 kts 27°
2026-05-07 17:18 19.79488 -19.61529 31976 ft 482 kts 26°
2026-05-07 17:19 19.85336 -19.58026 31978 ft 482 kts 26°
2026-05-07 17:19 19.91174 -19.54516 31977 ft 482 kts 26°
2026-05-07 17:20 19.96984 -19.51027 31976 ft 482 kts 26°
2026-05-07 17:20 20.02816 -19.47517 31977 ft 482 kts 26°
2026-05-07 17:21 20.08659 -19.44001 31967 ft 483 kts 26°
2026-05-07 17:21 20.14507 -19.40477 31963 ft 483 kts 26°
2026-05-07 17:22 20.20364 -19.36944 31968 ft 483 kts 26°
2026-05-07 17:22 20.26168 -19.33441 31964 ft 483 kts 26°
2026-05-07 17:23 20.32016 -19.29909 31966 ft 483 kts 26°
2026-05-07 17:23 20.37867 -19.26370 31975 ft 483 kts 26°
2026-05-07 17:24 20.43718 -19.22830 31964 ft 483 kts 26°
2026-05-07 17:24 20.49567 -19.19287 31963 ft 483 kts 26°
2026-05-07 17:25 20.55419 -19.15739 31965 ft 483 kts 26°
2026-05-07 17:25 20.61266 -19.12191 31967 ft 483 kts 26°
2026-05-07 17:26 20.67096 -19.08651 31974 ft 484 kts 26°
2026-05-07 17:26 20.72961 -19.05085 31972 ft 486 kts 26°
2026-05-07 17:27 20.78843 -19.01506 31972 ft 486 kts 26°
2026-05-07 17:27 20.84727 -18.97923 31967 ft 486 kts 26°
2026-05-07 17:28 20.90586 -18.94352 31971 ft 486 kts 26°
2026-05-07 17:28 20.96466 -18.90765 31972 ft 486 kts 26°
2026-05-07 17:29 21.02347 -18.87174 31973 ft 486 kts 26°
2026-05-07 17:29 21.08227 -18.83580 31977 ft 488 kts 26°
2026-05-07 17:30 21.14126 -18.79971 31969 ft 488 kts 26°
2026-05-07 17:30 21.19986 -18.76382 31970 ft 488 kts 26°
2026-05-07 17:31 21.25886 -18.72767 31969 ft 488 kts 26°
2026-05-07 17:31 21.31792 -18.69143 31971 ft 488 kts 26°
2026-05-07 17:32 21.37684 -18.65525 31974 ft 488 kts 26°
2026-05-07 17:32 21.43593 -18.61892 31974 ft 489 kts 26°
2026-05-07 17:33 21.49499 -18.58257 31973 ft 490 kts 26°
2026-05-07 17:33 21.55378 -18.54636 31975 ft 490 kts 26°
2026-05-07 17:34 21.61295 -18.50988 31975 ft 490 kts 26°
2026-05-07 17:34 21.67213 -18.47336 31979 ft 490 kts 26°
2026-05-07 17:35 21.73097 -18.43701 31991 ft 490 kts 26°
2026-05-07 17:35 21.79021 -18.40039 31973 ft 491 kts 26°
2026-05-07 17:36 21.84944 -18.36372 31976 ft 491 kts 26°
2026-05-07 17:36 21.90882 -18.32694 31976 ft 492 kts 26°
2026-05-07 17:37 21.96812 -18.29016 31975 ft 492 kts 26°
2026-05-07 17:37 22.02744 -18.25334 31976 ft 492 kts 26°
2026-05-07 17:38 22.08639 -18.21671 31977 ft 492 kts 26°
2026-05-07 17:38 22.14574 -18.17981 31979 ft 493 kts 26°
2026-05-07 17:39 22.20526 -18.14275 31977 ft 493 kts 26°
2026-05-07 17:39 22.26471 -18.10571 31980 ft 493 kts 26°
2026-05-07 17:40 22.32421 -18.06859 31981 ft 493 kts 26°
2026-05-07 17:40 22.38326 -18.03172 31981 ft 493 kts 26°
2026-05-07 17:41 22.44271 -17.99456 31969 ft 494 kts 26°
2026-05-07 17:41 22.50229 -17.95728 31973 ft 494 kts 26°
2026-05-07 17:42 22.56191 -17.91994 31974 ft 494 kts 26°
2026-05-07 17:42 22.62095 -17.88294 31987 ft 494 kts 26°
2026-05-07 17:43 22.68056 -17.84553 31985 ft 494 kts 26°
2026-05-07 17:43 22.74012 -17.80811 31980 ft 495 kts 26°
2026-05-07 17:44 22.79966 -17.77067 31981 ft 495 kts 26°
2026-05-07 17:44 22.85926 -17.73316 31982 ft 495 kts 26°
2026-05-07 17:45 22.91901 -17.69551 31980 ft 495 kts 26°
2026-05-07 17:45 22.97823 -17.65816 31981 ft 495 kts 26°
2026-05-07 17:46 23.03788 -17.62050 31986 ft 496 kts 26°
2026-05-07 17:46 23.09742 -17.58286 31985 ft 494 kts 26°
2026-05-07 17:47 23.15686 -17.54526 31982 ft 494 kts 26°
2026-05-07 17:47 23.21635 -17.50757 31982 ft 494 kts 26°
2026-05-07 17:48 23.27584 -17.46986 31983 ft 494 kts 26°
2026-05-07 17:48 23.33522 -17.43217 31980 ft 494 kts 26°
2026-05-07 17:49 23.39427 -17.39466 32012 ft 494 kts 26°
2026-05-07 17:49 23.45379 -17.35680 31988 ft 495 kts 26°
2026-05-07 17:50 23.51329 -17.31892 31990 ft 495 kts 26°
2026-05-07 17:50 23.57288 -17.28094 31994 ft 495 kts 26°
2026-05-07 17:51 23.63238 -17.24297 31992 ft 496 kts 26°
2026-05-07 17:51 23.69192 -17.20495 31997 ft 496 kts 26°
2026-05-07 17:52 23.75106 -17.16713 32000 ft 496 kts 26°
2026-05-07 17:52 23.81064 -17.12900 32001 ft 496 kts 26°
2026-05-07 17:53 23.87012 -17.09088 31994 ft 496 kts 26°
2026-05-07 17:53 23.92966 -17.05269 31994 ft 496 kts 26°
2026-05-07 17:54 23.98915 -17.01449 31993 ft 496 kts 27°
2026-05-07 17:54 24.04836 -16.97643 32009 ft 496 kts 26°
2026-05-07 17:55 24.10789 -16.93812 31997 ft 496 kts 26°
2026-05-07 17:55 24.16746 -16.89973 31992 ft 496 kts 26°
2026-05-07 17:56 24.22670 -16.86153 31998 ft 496 kts 27°
2026-05-07 17:56 24.28625 -16.82308 31998 ft 496 kts 27°
2026-05-07 17:57 24.33578 -16.79107 31998 ft 496 kts 27°
2026-05-07 17:57 24.40541 -16.74602 31997 ft 497 kts 26°
2026-05-07 17:58 24.46469 -16.70762 31997 ft 497 kts 27°
2026-05-07 17:58 24.52422 -16.66901 31998 ft 497 kts 26°
2026-05-07 17:59 24.58383 -16.63032 32001 ft 497 kts 26°
2026-05-07 17:59 24.64338 -16.59161 32001 ft 497 kts 26°
2026-05-07 18:00 24.69294 -16.55937 32002 ft 498 kts 26°
2026-05-07 18:00 24.76214 -16.51428 32001 ft 497 kts 26°
2026-05-07 18:01 24.81203 -16.48176 32002 ft 497 kts 26°
2026-05-07 18:01 24.87121 -16.44312 32005 ft 497 kts 26°
2026-05-07 18:02 24.96050 -16.38476 32005 ft 497 kts 26°
2026-05-07 18:03 25.02002 -16.34579 32012 ft 497 kts 26°
2026-05-07 18:03 25.07958 -16.30675 32005 ft 498 kts 26°
2026-05-07 18:04 25.13886 -16.26785 32006 ft 498 kts 26°
2026-05-07 18:04 25.19849 -16.22866 32007 ft 498 kts 26°
2026-05-07 18:05 25.25808 -16.18947 32009 ft 498 kts 26°
2026-05-07 18:05 25.31765 -16.15024 32010 ft 498 kts 26°
2026-05-07 18:06 25.37721 -16.11097 31995 ft 499 kts 26°
2026-05-07 18:06 25.43691 -16.07157 32006 ft 500 kts 26°
2026-05-07 18:07 25.49660 -16.03212 32010 ft 500 kts 26°
2026-05-07 18:07 25.55595 -15.99286 32016 ft 500 kts 26°
2026-05-07 18:08 25.61561 -15.95334 32008 ft 499 kts 26°
2026-05-07 18:08 25.67522 -15.91380 32005 ft 499 kts 26°
2026-05-07 18:09 25.73493 -15.87416 32010 ft 500 kts 26°
2026-05-07 18:09 25.79467 -15.83445 32023 ft 500 kts 26°
2026-05-07 18:10 25.85441 -15.79469 32009 ft 500 kts 26°
2026-05-07 18:10 25.91375 -15.75515 32013 ft 500 kts 26°
2026-05-07 18:11 25.97355 -15.71526 32024 ft 501 kts 26°
2026-05-07 18:11 26.03337 -15.67531 32022 ft 503 kts 26°
2026-05-07 18:12 26.09330 -15.63522 32018 ft 503 kts 26°
2026-05-07 18:12 26.15323 -15.59510 32019 ft 502 kts 26°
2026-05-07 18:13 26.21310 -15.55497 32017 ft 502 kts 26°
2026-05-07 18:13 26.27259 -15.51504 32020 ft 502 kts 26°
2026-05-07 18:14 26.33252 -15.47477 32032 ft 503 kts 26°
2026-05-07 18:14 26.39263 -15.43433 32023 ft 504 kts 26°
2026-05-07 18:15 26.45231 -15.39413 32023 ft 504 kts 26°
2026-05-07 18:15 26.51238 -15.35362 32021 ft 504 kts 26°
2026-05-07 18:16 26.57241 -15.31308 32026 ft 504 kts 26°
2026-05-07 18:16 26.63249 -15.27245 32026 ft 504 kts 26°
2026-05-07 18:17 26.69274 -15.23168 32019 ft 506 kts 26°
2026-05-07 18:17 26.75287 -15.19091 32019 ft 506 kts 26°
2026-05-07 18:18 26.81318 -15.14998 32022 ft 506 kts 26°
2026-05-07 18:18 26.87338 -15.10907 32019 ft 506 kts 26°
2026-05-07 18:19 26.93321 -15.06836 32021 ft 506 kts 26°
2026-05-07 18:19 26.99342 -15.02735 32023 ft 506 kts 26°
2026-05-07 18:20 27.05361 -14.98629 32019 ft 506 kts 26°
2026-05-07 18:20 27.11388 -14.94513 32015 ft 506 kts 26°
2026-05-07 18:21 27.17412 -14.90393 32023 ft 506 kts 26°
2026-05-07 18:21 27.23429 -14.86273 32022 ft 506 kts 26°
2026-05-07 18:22 27.29443 -14.82150 32024 ft 508 kts 26°
2026-05-07 18:22 27.35476 -14.78008 32023 ft 508 kts 26°
2026-05-07 18:23 27.41472 -14.73887 32024 ft 508 kts 26°
2026-05-07 18:23 27.47511 -14.69730 32023 ft 508 kts 26°
2026-05-07 18:24 27.53549 -14.65569 32026 ft 508 kts 26°
2026-05-07 18:24 27.59577 -14.61409 32040 ft 508 kts 26°
2026-05-07 18:25 27.65590 -14.57255 32031 ft 509 kts 26°
2026-05-07 18:25 27.71632 -14.53074 32022 ft 509 kts 26°
2026-05-07 18:26 27.77671 -14.48891 32015 ft 509 kts 26°
2026-05-07 18:26 27.83720 -14.44694 32015 ft 509 kts 26°
2026-05-07 18:27 27.89761 -14.40498 32016 ft 509 kts 26°
2026-05-07 18:27 27.95782 -14.36311 32017 ft 511 kts 26°
2026-05-07 18:28 28.01854 -14.32081 32018 ft 512 kts 26°
2026-05-07 18:28 28.07916 -14.27854 32018 ft 512 kts 26°
2026-05-07 18:29 28.13984 -14.23616 32019 ft 512 kts 26°
2026-05-07 18:29 28.20041 -14.19381 32015 ft 510 kts 26°
2026-05-07 18:30 28.26099 -14.15140 32017 ft 512 kts 25°
2026-05-07 18:30 28.32123 -14.10914 32021 ft 512 kts 25°
2026-05-07 18:31 28.38182 -14.06662 32012 ft 512 kts 26°
2026-05-07 18:31 28.44233 -14.02406 32002 ft 511 kts 26°
2026-05-07 18:32 28.50292 -13.98141 31999 ft 512 kts 26°
2026-05-07 18:32 28.56370 -13.93858 31998 ft 515 kts 25°
2026-05-07 18:33 28.62460 -13.89556 32003 ft 515 kts 25°
2026-05-07 18:33 28.68559 -13.85245 32005 ft 515 kts 26°
2026-05-07 18:34 28.74605 -13.80966 32009 ft 515 kts 26°
2026-05-07 18:34 28.80694 -13.76648 32011 ft 515 kts 26°
2026-05-07 18:35 28.86799 -13.72316 32003 ft 518 kts 25°
2026-05-07 18:35 28.92918 -13.67964 32002 ft 518 kts 26°
2026-05-07 18:36 28.99006 -13.63631 31999 ft 518 kts 25°
2026-05-07 18:36 29.05134 -13.59262 32002 ft 519 kts 26°
2026-05-07 18:37 29.11253 -13.54894 32008 ft 518 kts 26°
2026-05-07 18:37 29.17058 -13.49872 32015 ft 535 kts 43°
2026-05-07 18:38 29.21530 -13.43059 32014 ft 541 kts 52°
2026-05-07 18:38 29.25823 -13.35986 32021 ft 539 kts 52°
2026-05-07 18:39 29.30148 -13.28938 32017 ft 540 kts 52°
2026-05-07 18:39 29.34408 -13.21925 32020 ft 540 kts 52°